DAL8990 KPSP-KSGU

Flight info

Callsign DAL8990
Flight time 0h 45m
Altitude 33000
Route HWRRD1 EED
Aircraft A320/M-FAA/L

Departure

Time 2026-04-23 06:16
Airport Palm Springs International Airport (KPSP)

Arrival

Time 2026-04-23 07:01
Airport St George Regional Airport (KSGU)
Time Latitude Longitude Altitude Speed Heading
2026-04-23 06:03 33.82344 -116.50592 440 ft 0 kts 253°
2026-04-23 06:08 33.82345 -116.50589 411 ft 3 kts 252°
2026-04-23 06:08 33.82356 -116.50561 409 ft 4 kts 225°
2026-04-23 06:09 33.82377 -116.50547 418 ft 4 kts 178°
2026-04-23 06:09 33.82401 -116.50555 418 ft 3 kts 144°
2026-04-23 06:09 33.82404 -116.50557 418 ft 0 kts 143°
2026-04-23 06:12 33.82396 -116.50550 419 ft 4 kts 143°
2026-04-23 06:12 33.82355 -116.50514 408 ft 10 kts 143°
2026-04-23 06:12 33.82280 -116.50361 407 ft 11 kts 127°
2026-04-23 06:13 33.82219 -116.50303 411 ft 11 kts 143°
2026-04-23 06:13 33.82153 -116.50243 412 ft 13 kts 143°
2026-04-23 06:13 33.82078 -116.50176 408 ft 14 kts 143°
2026-04-23 06:13 33.82006 -116.50110 409 ft 13 kts 143°
2026-04-23 06:14 33.81929 -116.50042 408 ft 15 kts 143°
2026-04-23 06:14 33.81850 -116.49953 404 ft 16 kts 107°
2026-04-23 06:14 33.81850 -116.49824 402 ft 15 kts 77°
2026-04-23 06:14 33.81890 -116.49808 401 ft 0 kts 325°
2026-04-23 06:15 33.81894 -116.49811 402 ft 9 kts 325°
2026-04-23 06:15 33.82165 -116.50051 408 ft 84 kts 323°
2026-04-23 06:15 33.82797 -116.50606 422 ft 138 kts 319°
2026-04-23 06:15 33.83557 -116.51311 905 ft 144 kts 321°
2026-04-23 06:16 33.84362 -116.51826 1521 ft 147 kts 342°
2026-04-23 06:16 33.85437 -116.51826 2216 ft 154 kts 12°
2026-04-23 06:16 33.86415 -116.51119 2623 ft 180 kts 47°
2026-04-23 06:16 33.86944 -116.49652 2969 ft 208 kts 86°
2026-04-23 06:17 33.86758 -116.47857 3317 ft 233 kts 101°
2026-04-23 06:17 33.86422 -116.45811 3827 ft 258 kts 102°
2026-04-23 06:17 33.85702 -116.43766 4476 ft 275 kts 130°
2026-04-23 06:17 33.84361 -116.42092 5406 ft 280 kts 136°
2026-04-23 06:18 33.82968 -116.40421 6356 ft 286 kts 136°
2026-04-23 06:18 33.81548 -116.38710 7235 ft 292 kts 136°
2026-04-23 06:18 33.80116 -116.36984 8091 ft 298 kts 137°
2026-04-23 06:18 33.78634 -116.35193 8945 ft 305 kts 137°
2026-04-23 06:19 33.77109 -116.33348 9701 ft 316 kts 137°
2026-04-23 06:19 33.75683 -116.31288 10328 ft 332 kts 121°
2026-04-23 06:19 33.74923 -116.28601 10690 ft 354 kts 94°
2026-04-23 06:19 33.75181 -116.25656 11319 ft 359 kts 68°
2026-04-23 06:20 33.76365 -116.23032 12082 ft 358 kts 51°
2026-04-23 06:20 33.77800 -116.20563 12881 ft 363 kts 50°
2026-04-23 06:20 33.79271 -116.18061 13641 ft 369 kts 49°
2026-04-23 06:20 33.80767 -116.15529 14336 ft 375 kts 50°
2026-04-23 06:21 33.82280 -116.12962 15017 ft 380 kts 50°
2026-04-23 06:21 33.83819 -116.10333 15694 ft 386 kts 50°
2026-04-23 06:21 33.85368 -116.07671 16403 ft 391 kts 50°
2026-04-23 06:21 33.86935 -116.04973 17038 ft 397 kts 50°
2026-04-23 06:22 33.88528 -116.02231 17661 ft 403 kts 50°
2026-04-23 06:22 33.90148 -115.99448 18291 ft 408 kts 50°
2026-04-23 06:22 33.91784 -115.96629 18851 ft 413 kts 50°
2026-04-23 06:22 33.93436 -115.93781 19416 ft 417 kts 50°
2026-04-23 06:23 33.95109 -115.90899 20006 ft 421 kts 50°
2026-04-23 06:23 33.96793 -115.87993 20567 ft 425 kts 50°
2026-04-23 06:23 33.98491 -115.85056 21159 ft 429 kts 50°
2026-04-23 06:23 34.00204 -115.82089 21742 ft 433 kts 50°
2026-04-23 06:24 34.01902 -115.79150 22321 ft 437 kts 50°
2026-04-23 06:24 34.03654 -115.76118 22890 ft 441 kts 50°
2026-04-23 06:24 34.05421 -115.73061 23471 ft 446 kts 50°
2026-04-23 06:24 34.07197 -115.69982 23957 ft 450 kts 50°
2026-04-23 06:25 34.08987 -115.66872 24421 ft 454 kts 50°
2026-04-23 06:25 34.10796 -115.63725 24867 ft 457 kts 50°
2026-04-23 06:25 34.12610 -115.60560 25342 ft 460 kts 50°
2026-04-23 06:25 34.14443 -115.57363 25796 ft 464 kts 50°
2026-04-23 06:26 34.16287 -115.54152 26229 ft 467 kts 50°
2026-04-23 06:26 34.18144 -115.50918 26665 ft 470 kts 50°
2026-04-23 06:26 34.20010 -115.47661 27092 ft 473 kts 50°
2026-04-23 06:26 34.21891 -115.44377 27479 ft 477 kts 50°
2026-04-23 06:27 34.23787 -115.41066 27885 ft 480 kts 50°
2026-04-23 06:27 34.25689 -115.37740 28275 ft 483 kts 50°
2026-04-23 06:27 34.27581 -115.34425 28651 ft 486 kts 50°
2026-04-23 06:27 34.29508 -115.31044 29049 ft 490 kts 50°
2026-04-23 06:28 34.31445 -115.27640 29411 ft 493 kts 50°
2026-04-23 06:28 34.33393 -115.24212 29784 ft 496 kts 50°
2026-04-23 06:28 34.35351 -115.20764 30131 ft 499 kts 50°
2026-04-23 06:28 34.37320 -115.17292 30444 ft 501 kts 50°
2026-04-23 06:29 34.39297 -115.13801 30737 ft 504 kts 50°
2026-04-23 06:29 34.41288 -115.10285 31005 ft 507 kts 50°
2026-04-23 06:29 34.43286 -115.06756 31289 ft 509 kts 50°
2026-04-23 06:29 34.45291 -115.03215 31560 ft 511 kts 50°
2026-04-23 06:30 34.47276 -114.99707 31969 ft 511 kts 50°
2026-04-23 06:30 34.49292 -114.96140 32296 ft 512 kts 50°
2026-04-23 06:30 34.51305 -114.92574 32665 ft 513 kts 50°
2026-04-23 06:30 34.53318 -114.89002 32893 ft 514 kts 50°
2026-04-23 06:31 34.55307 -114.85460 32932 ft 499 kts 50°
2026-04-23 06:31 34.57233 -114.82016 32935 ft 488 kts 50°
2026-04-23 06:31 34.61024 -114.75255 32944 ft 483 kts 49°
2026-04-23 06:32 34.64823 -114.68518 32699 ft 484 kts 49°
2026-04-23 06:32 34.66714 -114.65149 32387 ft 482 kts 50°
2026-04-23 06:32 34.68591 -114.61787 32084 ft 480 kts 50°
2026-04-23 06:33 34.70456 -114.58438 31782 ft 478 kts 50°
2026-04-23 06:33 34.72317 -114.55101 31483 ft 475 kts 49°
2026-04-23 06:33 34.74334 -114.51969 31188 ft 465 kts 39°
2026-04-23 06:33 34.76644 -114.49296 30893 ft 454 kts 30°
2026-04-23 06:34 34.79177 -114.47098 30605 ft 442 kts 21°
2026-04-23 06:34 34.81859 -114.45379 30309 ft 430 kts 13°
2026-04-23 06:34 34.84626 -114.44117 30022 ft 421 kts
2026-04-23 06:34 34.87397 -114.42986 29687 ft 419 kts
2026-04-23 06:35 34.90116 -114.41873 29351 ft 417 kts
2026-04-23 06:35 34.92861 -114.40747 29048 ft 415 kts
2026-04-23 06:35 34.95592 -114.39625 28709 ft 413 kts
2026-04-23 06:35 34.98308 -114.38508 28394 ft 411 kts
2026-04-23 06:36 35.01007 -114.37393 28046 ft 408 kts
2026-04-23 06:36 35.03688 -114.36282 27737 ft 406 kts
2026-04-23 06:36 35.06358 -114.35179 27428 ft 404 kts
2026-04-23 06:36 35.09011 -114.34088 27127 ft 401 kts
2026-04-23 06:37 35.11656 -114.32999 26823 ft 400 kts
2026-04-23 06:37 35.14286 -114.31911 26525 ft 398 kts
2026-04-23 06:37 35.16890 -114.30833 26253 ft 395 kts
2026-04-23 06:37 35.19493 -114.29756 25999 ft 393 kts
2026-04-23 06:38 35.21974 -114.28729 25723 ft 391 kts
2026-04-23 06:38 35.24561 -114.27658 25440 ft 389 kts
2026-04-23 06:38 35.27122 -114.26598 25159 ft 387 kts
2026-04-23 06:38 35.29636 -114.25557 24889 ft 385 kts
2026-04-23 06:39 35.32170 -114.24506 24606 ft 383 kts
2026-04-23 06:39 35.34689 -114.23462 24330 ft 381 kts
2026-04-23 06:39 35.37194 -114.22422 24053 ft 380 kts
2026-04-23 06:39 35.39691 -114.21383 23780 ft 378 kts
2026-04-23 06:40 35.42170 -114.20349 23506 ft 376 kts
2026-04-23 06:40 35.44640 -114.19322 23233 ft 374 kts
2026-04-23 06:40 35.47102 -114.18299 22933 ft 372 kts
2026-04-23 06:40 35.49545 -114.17280 22619 ft 369 kts
2026-04-23 06:41 35.51977 -114.16265 22318 ft 368 kts
2026-04-23 06:41 35.54401 -114.15256 22023 ft 367 kts
2026-04-23 06:41 35.56817 -114.14250 21730 ft 365 kts
2026-04-23 06:41 35.59213 -114.13247 21430 ft 363 kts 10°
2026-04-23 06:42 35.61570 -114.12259 21156 ft 362 kts 10°
2026-04-23 06:42 35.63947 -114.11260 20879 ft 360 kts 10°
2026-04-23 06:42 35.66311 -114.10264 20604 ft 358 kts 10°
2026-04-23 06:42 35.68667 -114.09276 20359 ft 357 kts 11°
2026-04-23 06:43 35.71009 -114.08295 20088 ft 355 kts 11°
2026-04-23 06:43 35.73342 -114.07320 19822 ft 354 kts 11°
2026-04-23 06:43 35.75668 -114.06348 19567 ft 352 kts 11°
2026-04-23 06:43 35.77987 -114.05376 19302 ft 352 kts 11°
2026-04-23 06:44 35.80297 -114.04406 19036 ft 350 kts 11°
2026-04-23 06:44 35.82597 -114.03440 18774 ft 348 kts 11°
2026-04-23 06:44 35.84892 -114.02476 18518 ft 348 kts 12°
2026-04-23 06:44 35.87174 -114.01515 18262 ft 346 kts 12°
2026-04-23 06:45 35.89446 -114.00556 17982 ft 345 kts 12°
2026-04-23 06:45 35.91712 -113.99600 17694 ft 343 kts 12°
2026-04-23 06:45 35.93205 -113.98969 17499 ft 342 kts 12°
2026-04-23 06:45 35.95451 -113.98019 17211 ft 340 kts 12°
2026-04-23 06:46 35.97686 -113.97076 16929 ft 339 kts 12°
2026-04-23 06:46 35.99913 -113.96137 16638 ft 338 kts 13°
2026-04-23 06:46 36.02132 -113.95199 16371 ft 336 kts 13°
2026-04-23 06:46 36.04344 -113.94263 16122 ft 336 kts 13°
2026-04-23 06:47 36.06549 -113.93327 15892 ft 335 kts 13°
2026-04-23 06:47 36.08752 -113.92393 15659 ft 335 kts 14°
2026-04-23 06:47 36.10944 -113.91465 15449 ft 332 kts 13°
2026-04-23 06:47 36.13824 -113.90245 15150 ft 330 kts 13°
2026-04-23 06:48 36.15290 -113.89624 14997 ft 329 kts 13°
2026-04-23 06:48 36.17427 -113.88718 14783 ft 328 kts 14°
2026-04-23 06:48 36.19613 -113.87792 14571 ft 328 kts 14°
2026-04-23 06:48 36.21743 -113.86890 14364 ft 328 kts 14°
2026-04-23 06:49 36.23896 -113.85972 14162 ft 327 kts 14°
2026-04-23 06:49 36.26040 -113.85058 13950 ft 326 kts 14°
2026-04-23 06:49 36.28182 -113.84146 13760 ft 325 kts 15°
2026-04-23 06:49 36.30318 -113.83235 13563 ft 324 kts 15°
2026-04-23 06:50 36.32424 -113.82337 13346 ft 323 kts 14°
2026-04-23 06:50 36.34546 -113.81432 13145 ft 321 kts 15°
2026-04-23 06:50 36.36649 -113.80535 12928 ft 319 kts 15°
2026-04-23 06:50 36.38745 -113.79637 12723 ft 316 kts 15°
2026-04-23 06:51 36.40795 -113.78753 12513 ft 309 kts 15°
2026-04-23 06:51 36.42808 -113.77888 12311 ft 303 kts 15°
2026-04-23 06:51 36.44781 -113.77046 12119 ft 297 kts 16°
2026-04-23 06:51 36.46712 -113.76224 11909 ft 291 kts 16°
2026-04-23 06:52 36.48620 -113.75409 11711 ft 288 kts 16°
2026-04-23 06:52 36.50487 -113.74611 11527 ft 287 kts 16°
2026-04-23 06:52 36.52381 -113.73801 11325 ft 288 kts 15°
2026-04-23 06:52 36.54274 -113.72991 11127 ft 287 kts 16°
2026-04-23 06:53 36.56161 -113.72184 10928 ft 286 kts 16°
2026-04-23 06:53 36.58038 -113.71381 10730 ft 285 kts 16°
2026-04-23 06:53 36.59905 -113.70579 10543 ft 283 kts 16°
2026-04-23 06:53 36.61769 -113.69777 10343 ft 282 kts 16°
2026-04-23 06:54 36.63624 -113.68978 10124 ft 281 kts 16°
2026-04-23 06:54 36.65470 -113.68180 9911 ft 280 kts 17°
2026-04-23 06:54 36.67310 -113.67387 9688 ft 279 kts 16°
2026-04-23 06:54 36.69138 -113.66601 9453 ft 276 kts 17°
2026-04-23 06:55 36.70945 -113.65823 9218 ft 273 kts 17°
2026-04-23 06:55 36.72735 -113.65053 8988 ft 272 kts 17°
2026-04-23 06:55 36.74524 -113.64286 8717 ft 271 kts 17°
2026-04-23 06:55 36.76309 -113.63516 8441 ft 271 kts 17°
2026-04-23 06:56 36.78059 -113.62756 8172 ft 267 kts 17°
2026-04-23 06:56 36.79795 -113.61981 7900 ft 263 kts 18°
2026-04-23 06:56 36.81506 -113.61204 7639 ft 261 kts 18°
2026-04-23 06:56 36.83213 -113.60427 7419 ft 259 kts 18°
2026-04-23 06:57 36.84887 -113.59666 7278 ft 257 kts 18°
2026-04-23 06:57 36.86576 -113.58903 6858 ft 259 kts 18°
2026-04-23 06:57 36.88265 -113.58141 6425 ft 255 kts 18°
2026-04-23 06:57 36.89910 -113.57395 6009 ft 248 kts 18°
2026-04-23 06:58 36.91489 -113.56681 5596 ft 233 kts 19°
2026-04-23 06:58 36.92981 -113.56006 5225 ft 224 kts 20°
2026-04-23 06:58 36.94384 -113.55372 4853 ft 205 kts 19°
2026-04-23 06:58 36.95656 -113.54795 4566 ft 185 kts 19°
2026-04-23 06:59 36.96798 -113.54275 4291 ft 165 kts 18°
2026-04-23 06:59 36.97857 -113.53878 3988 ft 154 kts 10°
2026-04-23 06:59 36.98847 -113.53542 3751 ft 146 kts 22°
2026-04-23 06:59 36.99771 -113.53031 3449 ft 144 kts 24°
2026-04-23 07:00 37.00700 -113.52579 3219 ft 144 kts 27°
2026-04-23 07:00 37.01628 -113.52086 3098 ft 145 kts 26°
2026-04-23 07:00 37.02557 -113.51605 2898 ft 144 kts 25°
2026-04-23 07:00 37.03418 -113.51147 2868 ft 119 kts 22°
2026-04-23 07:01 37.03943 -113.50873 2878 ft 50 kts 22°
2026-04-23 07:01 37.04036 -113.50736 2880 ft 12 kts 127°
2026-04-23 07:01 37.03996 -113.50653 2879 ft 11 kts 128°
2026-04-23 07:02 37.03867 -113.50689 2877 ft 9 kts 204°
2026-04-23 07:02 37.03811 -113.50720 2876 ft 9 kts 204°
2026-04-23 07:02 37.03752 -113.50753 2874 ft 9 kts 204°
2026-04-23 07:02 37.03692 -113.50786 2873 ft 10 kts 204°
2026-04-23 07:03 37.03630 -113.50819 2871 ft 10 kts 202°
2026-04-23 07:03 37.03567 -113.50851 2870 ft 10 kts 202°
2026-04-23 07:03 37.03548 -113.50848 2870 ft 0 kts 103°
2026-04-23 07:03 37.03584 -113.50825 2871 ft 15 kts 10°
2026-04-23 07:04 37.03663 -113.50768 2872 ft 10 kts 84°
2026-04-23 07:04 37.03652 -113.50723 2872 ft 4 kts 81°
2026-04-23 07:04 37.03665 -113.50698 2873 ft 4 kts 46°
2026-04-23 07:04 37.03682 -113.50683 2873 ft 2 kts 29°
2026-04-23 07:05 37.03686 -113.50681 2873 ft 0 kts 29°
2026-04-23 07:05 37.03082 -113.50978 2855 ft 0 kts 117°